EN

Hourly Weather Alquife

Today, 16 January, Saturday

Time Temperature Precipitation Wind Pressure Humidity
00:00 -2°C° 0 mm 2 mps 613 mmHg 35%
01:00 -2°C° 0 mm 2 mps 613 mmHg 35%
02:00 -2°C° 0 mm 2 mps 613 mmHg 36%
03:00 -2°C° 0 mm 2 mps 613 mmHg 36%
04:00 -2°C° 0 mm 2 mps 613 mmHg 36%
05:00 -2°C° 0 mm 2 mps 613 mmHg 37%
06:00 -2°C° 0 mm 2 mps 613 mmHg 37%
07:00 -1°C° 0 mm 2 mps 614 mmHg 38%
08:00 +1°C° 0 mm 2 mps 614 mmHg 39%
09:00 +2°C° 0 mm 2 mps 615 mmHg 40%
10:00 +3°C° 0 mm 2 mps 616 mmHg 38%
11:00 +4°C° 0 mm 2 mps 616 mmHg 36%
12:00 +5°C° 0 mm 2 mps 617 mmHg 35%
13:00 +5°C° 0 mm 2 mps 617 mmHg 36%
14:00 +5°C° 0 mm 2 mps 617 mmHg 38%
15:00 +5°C° 0 mm 2 mps 617 mmHg 40%
16:00 +4°C° 0 mm 1 mps 616 mmHg 44%
17:00 +2°C° 0 mm 1 mps 615 mmHg 48%
18:00 0°C° 0 mm 1 mps 614 mmHg 52%
19:00 0°C° 0 mm 1 mps 615 mmHg 49%
20:00 0°C° 0 mm 1 mps 615 mmHg 46%
21:00 0°C° 0 mm 1 mps 615 mmHg 43%
22:00 0°C° 0 mm 1 mps 615 mmHg 42%
23:00 0°C° 0 mm 1 mps 615 mmHg 40%

Tomorrow, 17 January, Sunday

Time Temperature Precipitation Wind Pressure Humidity
00:00 0°C° 0 mm 1 mps 616 mmHg 39%
01:00 0°C° 0 mm 1 mps 615 mmHg 38%
02:00 0°C° 0 mm 1 mps 615 mmHg 36%
03:00 0°C° 0 mm 1 mps 615 mmHg 35%
04:00 0°C° 0 mm 1 mps 615 mmHg 34%
05:00 0°C° 0 mm 1 mps 615 mmHg 32%
06:00 0°C° 0 mm 1 mps 615 mmHg 31%
07:00 +1°C° 0 mm 1 mps 615 mmHg 32%
08:00 +3°C° 0 mm 1 mps 616 mmHg 33%
09:00 +5°C° 0 mm 1 mps 617 mmHg 35%
10:00 +6°C° 0 mm 1 mps 618 mmHg 33%
11:00 +7°C° 0 mm 1 mps 618 mmHg 30%
12:00 +9°C° 0 mm 1 mps 619 mmHg 28%
13:00 +9°C° 0 mm 1 mps 618 mmHg 30%
14:00 +9°C° 0 mm 1 mps 618 mmHg 33%
15:00 +8°C° 0 mm 1 mps 617 mmHg 35%
16:00 +6°C° 0 mm 1 mps 616 mmHg 36%
17:00 +4°C° 0 mm 1 mps 616 mmHg 38%
18:00 +2°C° 0 mm 1 mps 615 mmHg 40%
19:00 +2°C° 0 mm 1 mps 615 mmHg 37%
20:00 +2°C° 0 mm 1 mps 615 mmHg 34%
21:00 +1°C° 0 mm 1 mps 615 mmHg 32%
22:00 +1°C° 0 mm 1 mps 615 mmHg 32%
23:00 +1°C° 0 mm 1 mps 615 mmHg 32%

Day after tomorrow, 18 January, Monday

Time Temperature Precipitation Wind Pressure Humidity
00:00 0°C° 0 mm 0 mps 614 mmHg 32%
01:00 0°C° 0 mm 0 mps 614 mmHg 33%
02:00 0°C° 0 mm 0 mps 614 mmHg 34%
03:00 0°C° 0 mm 0 mps 614 mmHg 34%
04:00 -1°C° 0 mm 0 mps 614 mmHg 35%
05:00 -1°C° 0 mm 0 mps 614 mmHg 35%
06:00 -1°C° 0 mm 0 mps 613 mmHg 35%
07:00 0°C° 0 mm 0 mps 614 mmHg 38%
08:00 +2°C° 0 mm 0 mps 615 mmHg 40%
09:00 +3°C° 0 mm 0 mps 616 mmHg 42%
10:00 +5°C° 0 mm 1 mps 616 mmHg 40%
11:00 +6°C° 0 mm 1 mps 617 mmHg 37%
12:00 +7°C° 0 mm 1 mps 617 mmHg 35%
13:00 +8°C° 0 mm 1 mps 617 mmHg 37%
14:00 +8°C° 0 mm 1 mps 617 mmHg 39%
15:00 +8°C° 0 mm 1 mps 616 mmHg 41%
16:00 +6°C° 0 mm 1 mps 616 mmHg 48%
17:00 +4°C° 0 mm 1 mps 615 mmHg 56%
18:00 +1°C° 0 mm 0 mps 614 mmHg 63%
19:00 0°C° 0 mm 0 mps 614 mmHg 63%
20:00 +1°C° 0 mm 1 mps 614 mmHg 64%
21:00 +1°C° 0 mm 1 mps 614 mmHg 64%
22:00 -1°C° 0 mm 0 mps 614 mmHg 63%
23:00 -1°C° 0 mm 0 mps 614 mmHg 62%

19 January, Tuesday

Time Temperature Precipitation Wind Pressure Humidity
00:00 -1°C° 0 mm 0 mps 614 mmHg 62%
01:00 -1°C° 0 mm 0 mps 614 mmHg 60%
02:00 -2°C° 0 mm 0 mps 613 mmHg 58%
03:00 -2°C° 0 mm 0 mps 613 mmHg 56%
04:00 -2°C° 0 mm 0 mps 613 mmHg 54%
05:00 -2°C° 0 mm 0 mps 613 mmHg 51%
06:00 -2°C° 0 mm 0 mps 612 mmHg 49%
07:00 -1°C° 0 mm 0 mps 613 mmHg 47%
08:00 +1°C° 0 mm 0 mps 614 mmHg 44%
09:00 +4°C° 0 mm 1 mps 615 mmHg 42%
10:00 +5°C° 0 mm 1 mps 615 mmHg 41%
11:00 +6°C° 0 mm 1 mps 615 mmHg 40%
12:00 +7°C° 0 mm 1 mps 616 mmHg 39%
13:00 +7°C° 0 mm 1 mps 615 mmHg 41%
14:00 +6°C° 0 mm 1 mps 615 mmHg 43%
15:00 +6°C° 0 mm 1 mps 614 mmHg 44%
16:00 +4°C° 0 mm 1 mps 613 mmHg 49%
17:00 +3°C° 0 mm 1 mps 612 mmHg 53%
18:00 +1°C° 0 mm 1 mps 611 mmHg 58%
19:00 0°C° 0 mm 1 mps 611 mmHg 54%
20:00 0°C° 0 mm 1 mps 611 mmHg 49%
21:00 0°C° 0 mm 1 mps 611 mmHg 45%
22:00 0°C° 0 mm 1 mps 611 mmHg 44%
23:00 -2°C° 0 mm 2 mps 611 mmHg 42%

20 January, Wednesday

Time Temperature Precipitation Wind Pressure Humidity
00:00 -2°C° 0 mm 2 mps 610 mmHg 40%
01:00 -2°C° 0 mm 2 mps 610 mmHg 40%
02:00 -2°C° 0 mm 2 mps 609 mmHg 39%
03:00 -2°C° 0 mm 2 mps 609 mmHg 39%
04:00 -2°C° 0 mm 2 mps 609 mmHg 39%
05:00 -2°C° 0 mm 2 mps 608 mmHg 39%
06:00 -2°C° 0 mm 3 mps 608 mmHg 40%
07:00 -1°C° 0 mm 3 mps 608 mmHg 42%
08:00 0°C° 0 mm 3 mps 608 mmHg 43%
09:00 0°C° 0 mm 3 mps 609 mmHg 45%
10:00 +1°C° 0.2 mm 3 mps 609 mmHg 51%
11:00 +1°C° 0.2 mm 3 mps 609 mmHg 57%
12:00 +1°C° 0.2 mm 4 mps 609 mmHg 62%
13:00 +1°C° 0.5 mm 4 mps 608 mmHg 68%
14:00 +2°C° 0.5 mm 3 mps 608 mmHg 74%
15:00 +2°C° 0.5 mm 3 mps 607 mmHg 81%
16:00 +1°C° 0.7 mm 3 mps 607 mmHg 84%
17:00 +1°C° 0.7 mm 3 mps 607 mmHg 88%
18:00 0°C° 0.7 mm 3 mps 607 mmHg 92%
19:00 0°C° 0.1 mm 3 mps 607 mmHg 91%
20:00 0°C° 0.1 mm 3 mps 608 mmHg 90%
21:00 0°C° 0.1 mm 3 mps 608 mmHg 90%
22:00 0°C° 0.1 mm 3 mps 608 mmHg 90%
23:00 -1°C° 0.1 mm 4 mps 608 mmHg 90%

21 January, Thursday

Time Temperature Precipitation Wind Pressure Humidity
00:00 -1°C° 0.1 mm 4 mps 609 mmHg 91%
01:00 -1°C° 0 mm 4 mps 608 mmHg 90%
02:00 -2°C° 0 mm 4 mps 608 mmHg 89%
03:00 -1°C° 0 mm 3 mps 608 mmHg 89%
04:00 -1°C° 0 mm 3 mps 608 mmHg 88%
05:00 -1°C° 0 mm 3 mps 608 mmHg 87%
06:00 -2°C° 0 mm 3 mps 608 mmHg 86%
07:00 -1°C° 0 mm 3 mps 609 mmHg 84%
08:00 0°C° 0 mm 3 mps 610 mmHg 82%
09:00 0°C° 0 mm 4 mps 611 mmHg 79%
10:00 +1°C° 0 mm 4 mps 611 mmHg 74%
11:00 +3°C° 0 mm 4 mps 611 mmHg 69%
12:00 +3°C° 0 mm 5 mps 612 mmHg 64%
13:00 +3°C° 0 mm 5 mps 611 mmHg 65%
14:00 +4°C° 0 mm 4 mps 611 mmHg 66%
15:00 +4°C° 0 mm 4 mps 611 mmHg 67%
16:00 +3°C° 0 mm 4 mps 610 mmHg 73%
17:00 +1°C° 0 mm 4 mps 610 mmHg 79%
18:00 0°C° 0 mm 4 mps 609 mmHg 85%
19:00 0°C° 0 mm 4 mps 609 mmHg 83%
20:00 0°C° 0 mm 4 mps 609 mmHg 81%
21:00 +1°C° 0 mm 4 mps 609 mmHg 79%
22:00 +1°C° 0.1 mm 5 mps 609 mmHg 82%
23:00 +1°C° 0.1 mm 5 mps 609 mmHg 85%
Show more